DECAYED

DELTA 1 DEB, 35533 (Decayed)

Orbit data source: Space-Track

DELTA 1 DEB, 35533 was space debris in SSO originally from a launch on Thu, 12 Jun 1975 UTC launched from the Air Force Western Test Range (AFWTR). Debris objects in space refer to the collection of defunct objects orbiting the Earth. Examples of debris include non-operational satellites, rocket bodies, and fragments generated from explosions, collisions, or faulty payload assembly.

Not visible in the next 10 days
Identifier
35533, 1975-052LG
Orbit
Decayed
Country
Flag of USUS
Related business
Manufacturer
Unknown
Mission
Decayed spacecraft
Bus & Motor
Unknown
Mass
Unknown
Launch date (UTC)
1975-06-12 (50 years ago)
Launch vehicle
Unknown
Launch site
Air Force Western Test Range (AFWTR)
Object type
Payload
Rocket body
Debris
Shape & HBR
Unknown shape, 0.1 m
Radar Cross Section
Small (<0.1 m²)

Expand to show TLE details & history
Last TLE update: 8 months ago

TLE from 8 months ago
0 DELTA 1 DEB
1 35533U 75052LG  25055.01485891  .05743528  00000-0  33655-1 0  9998
2 35533  99.6827  77.2276 0014769 157.7872 202.4027 15.73969912141125
Epoch: 2025-02-24T00:21Z
TLE epoch observation values (Epoch: 2025-02-24T00:21:23.809Z)
Latitude
-0.0001°
Longitude
-82.26076°
Altitude
359.838 km
Speed
7.688 km/s
True Right ascension
05h 08m 54s
True Declination
0° 00' 00"
Sunlit
Object was in daylight at epoch
Visualization orbit readout
Latitude
Unknown
Longitude
Unknown
Altitude
Unknown
Speed
Unknown
Apparent Right ascension
Unknown
Apparent Declination
Unknown
Sunlit
N/A
Visualization observer readout
Local Sidereal Time
06:18:18
Azimuth
Unknown
Elevation
Unknown
Doppler factor
Unknown
Orbital elements
Apogee altitude
354.502 km
Perigee altitude
334.644 km
Semi-major axis
6,722.71 km
Eccentricity
0.00148
Inclination
99.6827°
RAAN
77.2276°
Arg. of periapsis
157.7872°
True anomaly
202.33831°
Mean anomaly
202.4027°
Eccentric anomaly
202.37049°
Mean motion
3.93755 °/min
Orbital period
91.43 mins
BSTAR
0.033655
Loading maneuver chart data...
Computing Atmospheric mass density...
Loading historical data...
Loading historical data...
Loading historical data...
Loading historical data...
Loading historical data...
Loading historical data...
Loading historical data...

Documentation

Showing up to 5 results
|